When you browse on this site, cookies collect data to enhance your experience and personalize the content and advertising you see.
Visit our Privacy Policy to learn more. By continuing to use the site, you agree to this use of cookies and data.

Tiempo cada hora Rio de Janeiro

Hoy, 19 Septiembre, Sábado

Tiempo Temperatura Precipitaciones Viento Presión Humedad
00:00 +26°C° 0 mm 3 mps 756 mmHg 75%
01:00 +26°C° 0 mm 3 mps 756 mmHg 74%
02:00 +26°C° 0 mm 2 mps 755 mmHg 73%
03:00 +26°C° 0 mm 2 mps 755 mmHg 72%
04:00 +26°C° 0 mm 1 mps 755 mmHg 71%
05:00 +25°C° 0 mm 1 mps 756 mmHg 69%
06:00 +25°C° 0 mm 1 mps 756 mmHg 68%
07:00 +28°C° 0 mm 1 mps 756 mmHg 59%
08:00 +30°C° 0 mm 1 mps 756 mmHg 50%
09:00 +31°C° 0 mm 0 mps 757 mmHg 41%
10:00 +35°C° 0 mm 1 mps 756 mmHg 36%
11:00 +37°C° 0 mm 1 mps 756 mmHg 31%
12:00 +40°C° 0 mm 2 mps 755 mmHg 26%
13:00 +38°C° 0 mm 2 mps 755 mmHg 32%
14:00 +36°C° 0 mm 3 mps 755 mmHg 38%
15:00 +34°C° 0 mm 3 mps 754 mmHg 44%
16:00 +31°C° 0 mm 3 mps 755 mmHg 50%
17:00 +30°C° 0 mm 2 mps 755 mmHg 57%
18:00 +28°C° 0 mm 2 mps 755 mmHg 63%
19:00 +28°C° 0 mm 2 mps 756 mmHg 65%
20:00 +28°C° 0 mm 3 mps 757 mmHg 66%
21:00 +27°C° 0 mm 3 mps 757 mmHg 67%
22:00 +27°C° 0 mm 3 mps 757 mmHg 71%
23:00 +26°C° 0 mm 3 mps 757 mmHg 75%

Mañana, 20 Septiembre, Domingo

Tiempo Temperatura Precipitaciones Viento Presión Humedad
00:00 +26°C° 0 mm 4 mps 758 mmHg 79%
01:00 +26°C° 0.1 mm 4 mps 758 mmHg 80%
02:00 +25°C° 0.1 mm 4 mps 758 mmHg 81%
03:00 +25°C° 0.1 mm 4 mps 758 mmHg 83%
04:00 +25°C° 0.1 mm 4 mps 758 mmHg 83%
05:00 +25°C° 0.1 mm 4 mps 759 mmHg 83%
06:00 +25°C° 0.1 mm 3 mps 759 mmHg 84%
07:00 +25°C° 0.3 mm 3 mps 760 mmHg 82%
08:00 +25°C° 0.3 mm 3 mps 760 mmHg 81%
09:00 +25°C° 0.3 mm 2 mps 761 mmHg 79%
10:00 +26°C° 0.1 mm 2 mps 760 mmHg 76%
11:00 +26°C° 0.1 mm 2 mps 760 mmHg 72%
12:00 +27°C° 0.1 mm 2 mps 760 mmHg 68%
13:00 +26°C° 0.4 mm 2 mps 760 mmHg 72%
14:00 +26°C° 0.4 mm 2 mps 760 mmHg 75%
15:00 +25°C° 0.4 mm 2 mps 759 mmHg 79%
16:00 +25°C° 0.3 mm 3 mps 760 mmHg 81%
17:00 +23°C° 0.3 mm 4 mps 760 mmHg 83%
18:00 +23°C° 0.3 mm 4 mps 760 mmHg 86%
19:00 +22°C° 0.4 mm 4 mps 761 mmHg 86%
20:00 +22°C° 0.4 mm 4 mps 761 mmHg 86%
21:00 +22°C° 0.4 mm 4 mps 762 mmHg 86%
22:00 +22°C° 0.4 mm 4 mps 762 mmHg 86%
23:00 +22°C° 0.4 mm 4 mps 762 mmHg 87%

Pasado mañana, 21 Septiembre, Lunes

Tiempo Temperatura Precipitaciones Viento Presión Humedad
00:00 +21°C° 0.4 mm 4 mps 761 mmHg 87%
01:00 +21°C° 0.5 mm 4 mps 761 mmHg 87%
02:00 +21°C° 0.5 mm 3 mps 761 mmHg 88%
03:00 +21°C° 0.5 mm 3 mps 760 mmHg 88%
04:00 +21°C° 0.5 mm 3 mps 761 mmHg 88%
05:00 +21°C° 0.5 mm 3 mps 761 mmHg 88%
06:00 +21°C° 0.5 mm 3 mps 761 mmHg 88%
07:00 +21°C° 1 mm 3 mps 761 mmHg 89%
08:00 +21°C° 1 mm 3 mps 761 mmHg 89%
09:00 +21°C° 1 mm 3 mps 762 mmHg 90%
10:00 +21°C° 1.3 mm 3 mps 762 mmHg 89%
11:00 +21°C° 1.3 mm 3 mps 761 mmHg 89%
12:00 +22°C° 1.3 mm 3 mps 761 mmHg 88%
13:00 +22°C° 0.9 mm 3 mps 761 mmHg 87%
14:00 +22°C° 0.9 mm 3 mps 760 mmHg 85%
15:00 +22°C° 0.9 mm 4 mps 760 mmHg 84%
16:00 +22°C° 1.8 mm 3 mps 760 mmHg 86%
17:00 +22°C° 1.8 mm 3 mps 761 mmHg 88%
18:00 +21°C° 1.8 mm 3 mps 761 mmHg 90%
19:00 +21°C° 1 mm 3 mps 761 mmHg 90%
20:00 +21°C° 1 mm 3 mps 761 mmHg 89%
21:00 +21°C° 1 mm 3 mps 762 mmHg 89%
22:00 +21°C° 0.3 mm 3 mps 762 mmHg 89%
23:00 +21°C° 0.3 mm 4 mps 762 mmHg 89%

22 Septiembre, Martes

Tiempo Temperatura Precipitaciones Viento Presión Humedad
00:00 +21°C° 0.3 mm 4 mps 762 mmHg 88%
01:00 +21°C° 0.4 mm 4 mps 761 mmHg 89%
02:00 +21°C° 0.4 mm 4 mps 761 mmHg 89%
03:00 +21°C° 0.4 mm 4 mps 760 mmHg 90%
04:00 +21°C° 0.5 mm 4 mps 761 mmHg 90%
05:00 +21°C° 0.5 mm 4 mps 761 mmHg 91%
06:00 +21°C° 0.5 mm 4 mps 761 mmHg 91%
07:00 +21°C° 1.4 mm 4 mps 761 mmHg 91%
08:00 +21°C° 1.4 mm 4 mps 762 mmHg 91%
09:00 +21°C° 1.4 mm 4 mps 762 mmHg 90%
10:00 +21°C° 4 mm 4 mps 762 mmHg 91%
11:00 +22°C° 4 mm 4 mps 762 mmHg 91%
12:00 +22°C° 4 mm 3 mps 762 mmHg 92%
13:00 +22°C° 1.1 mm 3 mps 762 mmHg 89%
14:00 +24°C° 1.1 mm 3 mps 762 mmHg 87%
15:00 +24°C° 1.1 mm 3 mps 762 mmHg 84%
16:00 +24°C° 0.4 mm 3 mps 762 mmHg 85%
17:00 +22°C° 0.4 mm 4 mps 762 mmHg 85%
18:00 +22°C° 0.4 mm 4 mps 763 mmHg 86%
19:00 +22°C° 0.4 mm 4 mps 763 mmHg 87%
20:00 +22°C° 0.4 mm 4 mps 763 mmHg 88%
21:00 +22°C° 0.4 mm 4 mps 764 mmHg 89%
22:00 +21°C° 0.9 mm 4 mps 764 mmHg 90%
23:00 +21°C° 0.9 mm 4 mps 763 mmHg 90%

23 Septiembre, Miércoles

Tiempo Temperatura Precipitaciones Viento Presión Humedad
00:00 +21°C° 0.9 mm 4 mps 763 mmHg 91%
01:00 +21°C° 0.6 mm 4 mps 763 mmHg 91%
02:00 +21°C° 0.6 mm 3 mps 763 mmHg 91%
03:00 +21°C° 0.6 mm 3 mps 762 mmHg 90%
04:00 +21°C° 0.5 mm 3 mps 763 mmHg 90%
05:00 +21°C° 0.5 mm 2 mps 763 mmHg 90%
06:00 +21°C° 0.5 mm 2 mps 763 mmHg 90%
07:00 +23°C° 0.1 mm 1 mps 763 mmHg 85%
08:00 +25°C° 0.1 mm 1 mps 764 mmHg 79%
09:00 +26°C° 0.1 mm 1 mps 764 mmHg 74%
10:00 +27°C° 0.2 mm 1 mps 764 mmHg 70%
11:00 +27°C° 0.2 mm 2 mps 764 mmHg 66%
12:00 +28°C° 0.2 mm 2 mps 764 mmHg 62%
13:00 +28°C° 0.2 mm 3 mps 763 mmHg 63%
14:00 +28°C° 0.2 mm 4 mps 763 mmHg 64%
15:00 +28°C° 0.2 mm 4 mps 762 mmHg 65%
16:00 +27°C° 0.1 mm 4 mps 762 mmHg 70%
17:00 +26°C° 0.1 mm 4 mps 763 mmHg 75%
18:00 +25°C° 0.1 mm 4 mps 763 mmHg 81%
19:00 +24°C° 0 mm 3 mps 763 mmHg 82%
20:00 +24°C° 0 mm 3 mps 763 mmHg 84%
21:00 +22°C° 0 mm 3 mps 763 mmHg 85%
22:00 +22°C° 0 mm 3 mps 763 mmHg 86%
23:00 +23°C° 0 mm 2 mps 763 mmHg 87%

24 Septiembre, Jueves

Tiempo Temperatura Precipitaciones Viento Presión Humedad
00:00 +23°C° 0 mm 2 mps 763 mmHg 88%
01:00 +23°C° 0 mm 2 mps 763 mmHg 88%
02:00 +22°C° 0 mm 1 mps 762 mmHg 89%
03:00 +22°C° 0 mm 1 mps 762 mmHg 89%
04:00 +22°C° 0 mm 1 mps 762 mmHg 89%
05:00 +22°C° 0 mm 1 mps 762 mmHg 89%
06:00 +22°C° 0 mm 1 mps 762 mmHg 89%
07:00 +24°C° 0 mm 1 mps 762 mmHg 81%
08:00 +26°C° 0 mm 1 mps 762 mmHg 72%
09:00 +28°C° 0 mm 1 mps 762 mmHg 64%
10:00 +29°C° 0 mm 1 mps 762 mmHg 58%
11:00 +31°C° 0 mm 2 mps 762 mmHg 53%
12:00 +34°C° 0 mm 2 mps 761 mmHg 48%
13:00 +33°C° 0 mm 3 mps 760 mmHg 50%
14:00 +33°C° 0 mm 3 mps 760 mmHg 51%
15:00 +32°C° 0 mm 4 mps 759 mmHg 53%
16:00 +30°C° 0 mm 4 mps 759 mmHg 59%
17:00 +29°C° 0 mm 3 mps 759 mmHg 65%
18:00 +28°C° 0 mm 3 mps 760 mmHg 71%
19:00 +27°C° 0 mm 3 mps 760 mmHg 73%
20:00 +27°C° 0 mm 2 mps 760 mmHg 76%
21:00 +26°C° 0 mm 2 mps 760 mmHg 78%
22:00 +26°C° 0 mm 1 mps 760 mmHg 79%
23:00 +25°C° 0 mm 1 mps 760 mmHg 79%
Mostrar más